OpenBCM V1.08-5-g2f4a (Linux)

Packet Radio Mailbox

IZ3LSV

[San Dona' di P. JN]

 Login: GUEST





  
CX2SA  > KEPS     30.12.07 23:21l 180 Lines 4721 Bytes #999 (0) @ AMSAT
BID : ORB07361.M
Read: GUEST
Subj: Orbital Elements  07361.MISC
Path: IZ3LSV<IW2OAZ<CX2SA
Sent: 071228/0251Z @:CX2SA.LAV.URY.SA #:28487 [Minas] FBB7.00e $:ORB07361.M
From: CX2SA@CX2SA.LAV.URY.SA
To  : KEPS@AMSAT


HR AMSAT ORBITAL ELEMENTS FOR MANNED AND MISCELLANEOUS SATELLITES
FROM WA5QGD FORT WORTH,TX December 27, 2007
Send Subscribe/unsubscribe to KEPS at 
http://www.amsat.org/mailman/listinfo/keps
BID: ORB07361.M
TO ALL RADIO AMATEURS BT

Satellite: CAPE1
Catalog number: 31130
Epoch time:      07360.94252742
Element set:    0197
Inclination:      098.0634 deg
RA of node:       066.5240 deg
Eccentricity:    0.0103528
Arg of perigee:   149.9484 deg
Mean anomaly:     210.7709 deg
Mean motion:   14.51916273 rev/day
Decay rate:       1.96e-06 rev/day^2
Epoch rev:           03658
Checksum:              300

Satellite: MAST
Catalog number: 31126
Epoch time:      07360.68430957
Element set:    0218
Inclination:      098.0630 deg
RA of node:       066.8667 deg
Eccentricity:    0.0095579
Arg of perigee:   149.1961 deg
Mean anomaly:     211.4888 deg
Mean motion:   14.53387390 rev/day
Decay rate:       -5.2e-07 rev/day^2
Epoch rev:           03681
Checksum:              324

Satellite: FALCON
Catalog number: 30776
Epoch time:      07360.72415758
Element set:    0212
Inclination:      035.4321 deg
RA of node:       125.3825 deg
Eccentricity:    0.0001872
Arg of perigee:   315.4872 deg
Mean anomaly:     044.5694 deg
Mean motion:   15.02834883 rev/day
Decay rate:       3.67e-06 rev/day^2
Epoch rev:           04403
Checksum:              285

Satellite: FCAL
Catalog number: 29667
Epoch time:      07357.95822928
Element set:     608
Inclination:      051.6309 deg
RA of node:       173.4389 deg
Eccentricity:    0.0009105
Arg of perigee:   017.2597 deg
Mean anomaly:     342.8716 deg
Mean motion:   15.97331535 rev/day
Decay rate:     3.0581e-04 rev/day^2
Epoch rev:            5823
Checksum:              331

Satellite: NCUBE2
Catalog number: 28897
Epoch time:      07360.67240582
Element set:    0436
Inclination:      098.1134 deg
RA of node:       253.4950 deg
Eccentricity:    0.0016455
Arg of perigee:   231.3909 deg
Mean anomaly:     128.5821 deg
Mean motion:   14.59786380 rev/day
Decay rate:       1.57e-06 rev/day^2
Epoch rev:           10745
Checksum:              318

Satellite: CO-58
Catalog number: 28895
Epoch time:      07360.68782746
Element set:    0908
Inclination:      098.1167 deg
RA of node:       253.5698 deg
Eccentricity:    0.0017076
Arg of perigee:   229.7414 deg
Mean anomaly:     130.2311 deg
Mean motion:   14.59619079 rev/day
Decay rate:       1.39e-06 rev/day^2
Epoch rev:           11517
Checksum:              346

Satellite: UWE-1
Catalog number: 28892
Epoch time:      07360.71497986
Element set:    0933
Inclination:      098.1143 deg
RA of node:       253.3095 deg
Eccentricity:    0.0016513
Arg of perigee:   229.6188 deg
Mean anomaly:     130.3578 deg
Mean motion:   14.59576420 rev/day
Decay rate:       1.05e-06 rev/day^2
Epoch rev:           11529
Checksum:              321

Satellite: OO-38
Catalog number: 26063
Epoch time:      07360.84784005
Element set:    0094
Inclination:      100.2173 deg
RA of node:       038.9795 deg
Eccentricity:    0.0036681
Arg of perigee:   338.2918 deg
Mean anomaly:     021.6709 deg
Mean motion:   14.35823651 rev/day
Decay rate:       -5.0e-08 rev/day^2
Epoch rev:           41469
Checksum:              311

Satellite: ISS
Catalog number: 25544
Epoch time:      07358.19907605
Element set:     566
Inclination:      051.6388 deg
RA of node:       204.1167 deg
Eccentricity:    0.0001180
Arg of perigee:   009.4893 deg
Mean anomaly:     097.0562 deg
Mean motion:   15.77988401 rev/day
Decay rate:     1.9879e-04 rev/day^2
Epoch rev:           52075
Checksum:              331

Satellite: PO-34
Catalog number: 25520
Epoch time:      07358.16520830
Element set:     894
Inclination:      028.4608 deg
RA of node:       277.1540 deg
Eccentricity:    0.0005735
Arg of perigee:   166.7441 deg
Mean anomaly:     193.3302 deg
Mean motion:   15.17105020 rev/day
Decay rate:       5.18e-06 rev/day^2
Epoch rev:           50640
Checksum:              275

Satellite: UARS
Catalog number: 21701
Epoch time:      07360.91235705
Element set:    0252
Inclination:      056.9734 deg
RA of node:       196.5046 deg
Eccentricity:    0.0086738
Arg of perigee:   201.0043 deg
Mean anomaly:     158.7439 deg
Mean motion:   15.49998650 rev/day
Decay rate:      3.370e-05 rev/day^2
Epoch rev:           89561
Checksum:              318

Satellite: HUBBLE
Catalog number: 20580
Epoch time:      07358.19829455
Element set:      33
Inclination:      028.4685 deg
RA of node:       031.0153 deg
Eccentricity:    0.0003477
Arg of perigee:   308.4536 deg
Mean anomaly:     051.5739 deg
Mean motion:   15.00318796 rev/day
Decay rate:       4.01e-06 rev/day^2
Epoch rev:           76852
Checksum:              295



Read previous mail | Read next mail


 17.12.2025 22:34:42lGo back Go up